Volver al catálogo

PROVES-ALCYONE

ActivoCienciaVLEO
NORAD 69797·PAYLOAD·🇺🇸 United States
Este nombre de satélite aún no ha sido confirmado por fuentes oficiales.

Lanzado Nov 20, 1998 desde Baikonur Cosmodrome

Loading…

Próximos Pases (próximas 24 horas)

TLE

ActualizadoSource: Space-Track

Época: Sep 13, 2026, 22:13 UTC

1 69797U 98067YM  26256.92616072  .00046625  00000-0  67506-3 0  9992
2 69797  51.6295 219.1343 0010542 141.8982 218.2757 15.55351836 11417

Sigue PROVES-ALCYONE en tiempo real con AllMySat

Download on the App Store